This is the latest recevied weather packets stored in our database for station/object OK1LPD-6. If no packets are shown the sender has not sent any weather packets the latest 10 day(s).
| Time | Temp. | Humidity | Pressure | Rain* | Wind** | Luminosity | Snow |
|---|---|---|---|---|---|---|---|
| 1777775716 | 8.89° C | 70% | 1017.1 hPa | 0 mm | - | - | - |
| 1777775115 | 8.89° C | 70% | 1017 hPa | 0 mm | - | - | - |
| 1777774526 | 8.89° C | 71% | 1016.9 hPa | 0 mm | - | - | - |
| 1777773916 | 8.89° C | 70% | 1017.2 hPa | 0 mm | - | - | - |
| 1777773315 | 8.89° C | 71% | 1017.1 hPa | 0 mm | - | - | - |
| 1777772725 | 8.89° C | 70% | 1017 hPa | 0 mm | - | - | - |
| 1777772116 | 9.44° C | 70% | 1017 hPa | 0 mm | - | - | - |
| 1777771515 | 9.44° C | 70% | 1017.1 hPa | 0 mm | - | - | - |
| 1777770927 | 9.44° C | 70% | 1017.1 hPa | 0 mm | - | - | - |
| 1777770316 | 9.44° C | 70% | 1017.3 hPa | 0 mm | - | - | - |
| 1777769715 | 9.44° C | 70% | 1017.3 hPa | 0 mm | - | - | - |
| 1777769126 | 9.44° C | 69% | 1017.3 hPa | 0 mm | - | - | - |
| 1777768516 | 10° C | 70% | 1017.4 hPa | 0 mm | - | - | - |
| 1777767916 | 10° C | 70% | 1017.3 hPa | 0 mm | - | - | - |
| 1777767332 | 9.44° C | 71% | 1017.5 hPa | 0 mm | - | - | - |
| 1777766717 | 9.44° C | 71% | 1017.5 hPa | 0 mm | - | - | - |
| 1777766117 | 9.44° C | 70% | 1017.6 hPa | 0 mm | - | - | - |
| 1777765534 | 9.44° C | 69% | 1017.6 hPa | 0 mm | - | - | - |
| 1777764916 | 10.56° C | 66% | 1017.7 hPa | 0 mm | - | - | - |
| 1777764316 | 10.56° C | 64% | 1017.8 hPa | 0 mm | - | - | - |
| 1777763737 | 10.56° C | 66% | 1017.8 hPa | 0 mm | - | - | - |
| 1777763117 | 10.56° C | 68% | 1018 hPa | 0 mm | - | - | - |
| 1777762516 | 10° C | 70% | 1017.9 hPa | 0 mm | - | - | - |
| 1777761935 | 10° C | 69% | 1017.9 hPa | 0 mm | - | - | - |
| 1777761317 | 10° C | 68% | 1018.1 hPa | 0 mm | - | - | - |
* Rain latest hour (hover to see other rain measurements)
** Current wind speed in m/s (hover to see current wind gust speed)